Le nostre stazioni meteo in Italia

Pubblicità
Il mio iltempo24.it
Cagliari/Elmas, Italia (16560): Temperatura & dewpoint: 14.10.2017 09:00:00 - 20.10.2017 09:00:00 (CEST)Cagliari/Elmas, Italia (16560): velocità del vento: 14.10.2017 09:00:00 - 20.10.2017 09:00:00 (CEST)Cagliari/Elmas, Italia (16560): direzione del vento: 14.10.2017 09:00:00 - 20.10.2017 09:00:00 (CEST)Cagliari/Elmas, Italia (16560): reduced air pressure: 14.10.2017 09:00:00 - 20.10.2017 09:00:00 (CEST)Cagliari/Elmas, Italia (16560): visibility: 14.10.2017 09:00:00 - 20.10.2017 09:00:00 (CEST)Cagliari/Elmas, Italia (16560): precipitazioni: 14.10.2017 09:00:00 - 20.10.2017 09:00:00 (CEST)
Data & Tempo tt [°C] td [°C] ff [km/h] ff [kn] dd ppp [hPa] vv [km] rr [mm]
20.10.2017 09:00:00 - - - - - - - -
20.10.2017 08:00:00 21,0 16,8 9 5 ENE 1014,2 10 -
20.10.2017 07:00:00 22,0 18,0 13 7 E - 10 -
20.10.2017 06:00:00 22,0 19,0 18 10 E - 10 -
20.10.2017 05:00:00 21,9 18,4 21 11 ESE 1013,4 10 0,0
20.10.2017 04:00:00 22,0 18,0 26 14 ESE - 10 -
20.10.2017 03:00:00 - - - - - - - -
20.10.2017 02:00:00 21,8 18,6 26 14 ESE 1013,7 10 -
20.10.2017 01:00:00 22,0 19,0 26 14 ESE - 10 -
20.10.2017 00:00:00 22,0 19,0 29 16 ESE - 10 -
19.10.2017 23:00:00 22,1 18,4 29 16 ESE 1013,9 10 0,0
19.10.2017 22:00:00 22,0 17,0 24 13 ESE - 10 -
19.10.2017 21:00:00 22,0 17,0 24 13 ESE - 10 -
19.10.2017 20:00:00 21,9 16,6 22 12 SE 1013,5 10 -
19.10.2017 19:00:00 22,0 17,0 16 9 SSE - 10 -
19.10.2017 18:00:00 23,0 18,0 21 11 SE - 10 -
19.10.2017 17:00:00 24,2 17,0 24 13 SE 1013,2 10 0,0
19.10.2017 16:00:00 24,0 18,0 28 15 SE - 10 -
19.10.2017 15:00:00 24,0 19,0 26 14 SSE - 10 -
19.10.2017 14:00:00 23,1 18,7 28 15 SSE 1014,7 10 -
19.10.2017 13:00:00 24,0 19,0 28 15 SE - 10 -
19.10.2017 12:00:00 25,0 18,0 26 14 SE - 10 -
19.10.2017 11:00:00 24,1 17,3 15 8 SE 1015,6 10 0,0
19.10.2017 10:00:00 22,0 17,0 5 3 ESE - 10 -
19.10.2017 09:00:00 11,0 7,0 11 6 E - 10 -
19.10.2017 08:00:00 17,9 15,0 8 4 E 1015,5 10 -
19.10.2017 07:00:00 19,0 16,0 11 6 E - 10 -
19.10.2017 06:00:00 18,0 16,0 11 6 ESE - 10 -
19.10.2017 05:00:00 18,8 15,8 13 7 E 1015,8 10 0,0
19.10.2017 04:00:00 18,0 15,0 9 5 E - 10 -
19.10.2017 03:00:00 18,0 15,0 9 5 ESE - 10 -
19.10.2017 02:00:00 16,8 13,8 8 4 E 1016,8 10 -
19.10.2017 01:00:00 18,0 15,0 8 4 E - 10 -
19.10.2017 00:00:00 18,0 15,0 8 4 E - 10 -
18.10.2017 23:00:00 19,3 15,1 11 6 E 1017,7 10 0,0
18.10.2017 22:00:00 20,0 17,0 11 6 SSE - 10 -
18.10.2017 21:00:00 21,0 17,0 16 9 SSE - 10 -
18.10.2017 20:00:00 21,1 17,7 15 8 SSE 1017,2 10 -
18.10.2017 19:00:00 22,0 18,0 18 10 SSE - 10 -
18.10.2017 18:00:00 22,0 18,0 18 10 SSE - 10 -
18.10.2017 17:00:00 22,7 18,5 21 11 SSE 1017,0 10 0,0
18.10.2017 16:00:00 23,0 18,0 21 11 SSE - 10 -
18.10.2017 15:00:00 24,0 18,0 21 11 SSE - 10 -
18.10.2017 14:00:00 23,9 18,0 18 10 SE 1018,4 10 -
18.10.2017 13:00:00 24,0 18,0 13 7 SSE - 10 -
18.10.2017 12:00:00 23,0 17,0 9 5 SSE - 10 -
18.10.2017 11:00:00 19,5 15,1 5 3 ONO 1020,2 5 0,0
18.10.2017 10:00:00 15,0 14,0 4 2 - - 5 -
18.10.2017 09:00:00 13,0 13,0 8 4 NO - 4,5 -
18.10.2017 08:00:00 11,5 11,0 9 5 NNO 1020,2 0,8 -
18.10.2017 07:00:00 12,0 11,0 11 6 NNO - 9 -
18.10.2017 06:00:00 12,0 12,0 11 6 NNO - 9 -
18.10.2017 05:00:00 13,3 12,6 11 6 NO 1020,8 10 0,0
18.10.2017 04:00:00 13,0 12,0 9 5 NNO - 10 -
18.10.2017 03:00:00 14,0 13,0 5 3 NO - 10 -
18.10.2017 02:00:00 15,1 13,6 8 4 NNO 1022,1 10 -
18.10.2017 01:00:00 17,0 15,0 5 3 NO - 10 -
18.10.2017 00:00:00 19,0 17,0 8 4 E - 10 -
17.10.2017 23:00:00 20,1 17,3 9 5 SSE 1022,8 10 0,0
17.10.2017 22:00:00 20,0 17,0 8 4 S - 10 -
17.10.2017 21:00:00 20,0 17,0 9 5 S - 10 -
17.10.2017 20:00:00 20,2 16,7 13 7 SSE 1022,7 10 -
17.10.2017 19:00:00 21,0 17,0 15 8 SSE - 10 -
17.10.2017 18:00:00 22,0 17,0 21 11 SSE - 10 -
17.10.2017 17:00:00 22,6 16,9 16 9 SSE 1022,6 10 0,0
17.10.2017 16:00:00 23,0 17,0 16 9 SSE - 10 -
17.10.2017 15:00:00 23,0 17,0 15 8 SSE - 10 -
17.10.2017 14:00:00 23,7 16,5 15 8 SSE 1024,3 10 -
17.10.2017 13:00:00 23,0 16,0 13 7 SSE - 10 -
17.10.2017 12:00:00 23,0 16,0 13 7 SE - 10 -
17.10.2017 11:00:00 21,1 14,9 4 2 - 1025,9 10 0,0
17.10.2017 10:00:00 16,0 12,0 8 4 NO - 10 -
17.10.2017 09:00:00 12,0 10,0 8 4 NNO - 10 -
17.10.2017 08:00:00 10,7 9,4 9 5 NNO 1025,5 10 -
17.10.2017 07:00:00 12,0 11,0 9 5 NNO - 10 -
17.10.2017 06:00:00 12,0 11,0 8 4 NNO - 10 -
17.10.2017 05:00:00 12,3 11,2 11 6 NNO 1025,3 10 0,0
17.10.2017 04:00:00 13,0 11,0 9 5 NO - 10 -
17.10.2017 03:00:00 13,0 12,0 5 3 NNO - 10 -
17.10.2017 02:00:00 14,1 12,6 4 2 N 1026,4 10 -
17.10.2017 01:00:00 16,0 15,0 5 3 N - 10 -
17.10.2017 00:00:00 20,0 17,0 8 4 SSO - 10 -
16.10.2017 23:00:00 19,9 17,8 8 4 S 1026,8 10 0,0
16.10.2017 22:00:00 20,0 18,0 9 5 S - 10 -
16.10.2017 21:00:00 21,0 18,0 11 6 S - 10 -
16.10.2017 20:00:00 20,7 17,2 11 6 SSE 1026,7 10 -
16.10.2017 19:00:00 21,0 17,0 13 7 SSE - 10 -
16.10.2017 18:00:00 22,0 17,0 13 7 SSE - 10 -
16.10.2017 17:00:00 22,5 17,2 18 10 SSE 1026,4 10 0,0
16.10.2017 16:00:00 23,0 18,0 16 9 S - 10 -
16.10.2017 15:00:00 24,0 17,0 18 10 SSE - 10 -
16.10.2017 14:00:00 23,3 16,9 13 7 S 1027,4 10 -
16.10.2017 13:00:00 23,0 17,0 13 7 S - 10 -
16.10.2017 12:00:00 22,0 16,0 8 4 SSO - 10 -
16.10.2017 11:00:00 20,6 15,4 4 2 - 1028,5 10 0,0
16.10.2017 10:00:00 16,0 13,0 5 3 NO - 10 -
16.10.2017 09:00:00 13,0 12,0 8 4 NNO - 10 -
16.10.2017 08:00:00 11,8 10,6 11 6 NNO 1027,4 10 -
16.10.2017 07:00:00 11,0 10,0 8 4 NNO - 10 -
16.10.2017 06:00:00 12,0 10,0 8 4 NNO - 10 -
16.10.2017 05:00:00 12,6 11,2 9 5 N 1027,3 10 0,0
16.10.2017 04:00:00 13,0 12,0 9 5 NNO - 10 -
16.10.2017 03:00:00 14,0 12,0 8 4 NO - 10 -
16.10.2017 02:00:00 14,6 12,9 4 2 - 1027,8 10 -
16.10.2017 01:00:00 16,0 14,0 5 3 NE - 10 -
16.10.2017 00:00:00 17,0 15,0 4 2 - - 10 -
15.10.2017 23:00:00 19,4 16,4 9 5 SSE 1028,3 10 0,0
15.10.2017 22:00:00 20,0 16,0 5 3 S - 10 -
15.10.2017 21:00:00 20,0 17,0 9 5 S - 10 -
15.10.2017 20:00:00 20,6 16,2 13 7 SSE 1028,0 10 -
15.10.2017 19:00:00 21,0 16,0 15 8 SSE - 10 -
15.10.2017 18:00:00 22,0 16,0 15 8 SSE - 10 -
15.10.2017 17:00:00 22,8 16,3 15 8 SSE 1027,6 10 0,0
15.10.2017 16:00:00 23,0 16,0 15 8 SSE - 10 -
15.10.2017 15:00:00 24,0 14,0 13 7 SSE - 10 -
15.10.2017 14:00:00 23,8 12,8 13 7 SSE 1028,4 10 -
15.10.2017 13:00:00 23,0 14,0 11 6 S - 10 -
15.10.2017 12:00:00 22,0 14,0 5 3 - - 10 -
15.10.2017 11:00:00 20,7 14,7 5 3 ONO 1029,8 10 0,0
15.10.2017 10:00:00 17,0 14,0 9 5 NO - 10 -
15.10.2017 09:00:00 14,0 13,0 9 5 NNO - 10 -
15.10.2017 08:00:00 13,1 11,9 9 5 N 1028,8 10 -
15.10.2017 07:00:00 14,0 13,0 9 5 NO - 8 -
15.10.2017 06:00:00 14,0 12,0 8 4 NNO - 10 -
15.10.2017 05:00:00 14,8 12,8 9 5 NO 1028,2 10 0,0
15.10.2017 04:00:00 15,0 13,0 9 5 NNO - 10 -
15.10.2017 03:00:00 16,0 13,0 4 2 - - 10 -
15.10.2017 02:00:00 16,1 13,2 4 2 NE 1028,4 10 -
15.10.2017 01:00:00 17,0 14,0 4 2 - - 10 -
15.10.2017 00:00:00 20,0 16,0 5 3 SO - 10 -
14.10.2017 23:00:00 19,8 15,8 5 3 SSE 1028,4 10 0,0
14.10.2017 22:00:00 21,0 16,0 9 5 S - 10 -
14.10.2017 21:00:00 21,0 16,0 11 6 S - 10 -
14.10.2017 20:00:00 21,1 15,5 11 6 S 1027,8 10 -
14.10.2017 19:00:00 21,0 15,0 15 8 SSE - 10 -
14.10.2017 18:00:00 22,0 15,0 16 9 SSE - 10 -
14.10.2017 17:00:00 22,9 15,7 16 9 SSE 1026,7 10 0,0
14.10.2017 16:00:00 24,0 16,0 16 9 SSE - 10 -
14.10.2017 15:00:00 24,0 15,0 13 7 S - 10 -
14.10.2017 14:00:00 23,9 14,4 9 5 S 1027,3 10 -
14.10.2017 13:00:00 24,0 15,0 11 6 SO - 10 -
14.10.2017 12:00:00 23,0 15,0 5 3 S - 10 -
14.10.2017 11:00:00 21,2 16,2 8 4 ONO 1028,1 10 0,0
14.10.2017 10:00:00 18,0 15,0 8 4 NO - 10 -
14.10.2017 09:00:00 15,0 14,0 5 3 NNO - 10 -

tt = Temperatura
td = dewpoint
ff = velocità del vento
dd = direzione del vento
ppp = reduced air pressure
vv = visibility
rr = precipitazioni

Stazioni seguenti

WeatherPro
AMSI
MeteoEarth